TimeCST,TemperatureF,Dew PointF,Humidity,Sea Level PressureIn,VisibilityMPH,Wind Direction,Wind SpeedMPH,Gust SpeedMPH,PrecipitationIn,Events,Conditions,WindDirDegrees,DateUTC
12:52 AM,39.9,37.9,93,30.20,6.0,Calm,Calm,-,N/A,,Clear,0,2012-11-22 06:52:00
1:52 AM,37.9,36.0,93,30.21,4.0,Calm,Calm,-,N/A,,Clear,0,2012-11-22 07:52:00
2:05 AM,37.4,35.6,93,30.21,1.8,Calm,Calm,-,N/A,,Clear,0,2012-11-22 08:05:00
2:24 AM,37.4,35.6,93,30.21,3.0,Calm,Calm,-,N/A,,Clear,0,2012-11-22 08:24:00
2:52 AM,37.0,36.0,96,30.21,4.0,Calm,Calm,-,N/A,,Clear,0,2012-11-22 08:52:00
3:52 AM,37.9,35.1,89,30.21,5.0,Calm,Calm,-,N/A,,Clear,0,2012-11-22 09:52:00
4:52 AM,35.1,34.0,96,30.21,3.0,Calm,Calm,-,N/A,,Clear,0,2012-11-22 10:52:00
5:00 AM,35.6,33.8,93,30.21,1.8,Calm,Calm,-,N/A,,Clear,0,2012-11-22 11:00:00
5:09 AM,35.6,33.8,93,30.21,0.5,Calm,Calm,-,N/A,Fog,Fog,0,2012-11-22 11:09:00
5:21 AM,33.8,33.8,100,30.21,0.5,Calm,Calm,-,N/A,Fog,Fog,0,2012-11-22 11:21:00
5:25 AM,35.6,33.8,93,30.21,1.0,Calm,Calm,-,N/A,,Clear,0,2012-11-22 11:25:00
5:29 AM,35.6,33.8,93,30.21,3.0,Calm,Calm,-,N/A,,Clear,0,2012-11-22 11:29:00
5:41 AM,35.6,33.8,93,30.21,2.0,Calm,Calm,-,N/A,,Clear,0,2012-11-22 11:41:00
5:52 AM,35.1,34.0,96,30.22,3.0,Calm,Calm,-,N/A,,Clear,0,2012-11-22 11:52:00
6:02 AM,33.8,33.8,100,30.21,1.8,Calm,Calm,-,N/A,,Clear,0,2012-11-22 12:02:00
6:22 AM,33.8,32.0,93,30.22,0.5,Calm,Calm,-,N/A,Fog,Fog,0,2012-11-22 12:22:00
6:41 AM,33.8,32.0,93,30.22,1.2,Calm,Calm,-,N/A,,Partly Cloudy,0,2012-11-22 12:41:00
6:45 AM,33.8,32.0,93,30.22,3.0,Calm,Calm,-,N/A,,Partly Cloudy,0,2012-11-22 12:45:00
6:52 AM,33.1,32.0,96,30.23,3.0,Calm,Calm,-,N/A,,Clear,0,2012-11-22 12:52:00
7:02 AM,33.8,32.0,93,30.22,2.5,Calm,Calm,-,N/A,,Clear,0,2012-11-22 13:02:00
7:15 AM,33.8,33.8,100,30.22,1.5,Calm,Calm,-,N/A,,Clear,0,2012-11-22 13:15:00
7:47 AM,37.4,37.4,100,30.22,2.0,Calm,Calm,-,N/A,,Clear,0,2012-11-22 13:47:00
7:52 AM,39.0,37.0,93,30.23,2.5,Calm,Calm,-,N/A,,Clear,0,2012-11-22 13:52:00
8:05 AM,39.2,39.2,100,30.23,3.0,Calm,Calm,-,N/A,,Clear,0,2012-11-22 14:05:00
8:52 AM,46.0,42.1,86,30.23,4.0,SE,3.5,-,N/A,,Clear,140,2012-11-22 14:52:00
9:52 AM,55.0,45.0,69,30.22,6.0,Calm,Calm,-,N/A,,Haze,0,2012-11-22 15:52:00
10:52 AM,61.0,44.1,54,30.19,10.0,SW,9.2,-,N/A,,Clear,230,2012-11-22 16:52:00
11:52 AM,64.0,43.0,46,30.17,10.0,SW,6.9,-,N/A,,Clear,230,2012-11-22 17:52:00
12:52 PM,66.0,42.1,42,30.15,10.0,SSW,8.1,-,N/A,,Clear,210,2012-11-22 18:52:00
1:52 PM,68.0,37.9,33,30.13,10.0,SW,10.4,-,N/A,,Clear,220,2012-11-22 19:52:00
2:52 PM,66.9,36.0,32,30.12,10.0,SSW,11.5,-,N/A,,Clear,210,2012-11-22 20:52:00
3:52 PM,64.0,37.0,37,30.11,10.0,South,8.1,-,N/A,,Clear,190,2012-11-22 21:52:00
4:52 PM,61.0,35.1,38,30.11,10.0,SSW,5.8,-,N/A,,Clear,210,2012-11-22 22:52:00
5:52 PM,59.0,35.1,41,30.10,10.0,South,5.8,-,N/A,,Clear,180,2012-11-22 23:52:00
6:52 PM,57.0,37.0,47,30.11,10.0,SSW,6.9,-,N/A,,Clear,200,2012-11-23 00:52:00
7:52 PM,57.9,35.1,42,30.11,10.0,SSW,5.8,-,N/A,,Clear,200,2012-11-23 01:52:00
8:52 PM,55.0,36.0,49,30.10,10.0,South,4.6,-,N/A,,Clear,180,2012-11-23 02:52:00
9:52 PM,55.0,37.0,51,30.11,10.0,South,4.6,-,N/A,,Clear,190,2012-11-23 03:52:00
10:52 PM,55.9,37.9,51,30.11,10.0,SW,4.6,-,N/A,,Clear,220,2012-11-23 04:52:00
11:52 PM,50.0,37.9,63,30.12,10.0,South,4.6,-,N/A,,Clear,190,2012-11-23 05:52:00